Back to catalog

STARLINK-11633

AliveCommunicationsVLEO
NORAD 63317·PAYLOAD·🇺🇸 United States

Launched Mar 18, 2025 from Cape Canaveral Space Force Station

Loading…

Next Passes (next 24 hours)

TLE

FreshSource: CelesTrak SupGP

Epoch: Sep 14, 2026, 15:07 UTC

1 63317C 25057L   26257.63034722 -.00069686  00000+0 -54154-3 0  2573
2 63317  43.0010 205.2478 0001738 257.4388 245.9322 15.70860034    16

Track STARLINK-11633 in real time with AllMySat

Download on the App Store